Regional Weather Roundup
Issued by NWS

Home | Current Version | Previous Version | Graphics & Text | Print | Product List | Glossary On
Versions: 1 2 3 4 5 6 7 8 9 10 11 12 13 14 15 16 17 18 19 20 21 22 23 24 25 26 27 28 29 30 31 32 33 34 35 36 37 38 39 40 41 42 43 44 45 46 47 48 49 50
000
ASUS45 KSLC 041910
RWRUT

UTAH REGIONAL WEATHER ROUNDUP
NATIONAL WEATHER SERVICE SALT LAKE CITY UT
100 PM MDT TUE AUG 04 2015

UTZ001>011-023>025-042000-

NORTHERN UTAH

CITY           SKY/WX    TMP DP  RH WIND       PRES   REMARKS
BRIGHAM CITY   SUNNY     78  49  36 NW3       30.11F
HILL AFB       SUNNY     79  54  42 VRB3      30.13F
LOGAN          SUNNY     74  56  53 SW5       30.12F
OGDEN          SUNNY     80  55  42 CALM      30.11F
PROVO AIRPORT  MOSUNNY   75  54  46 CALM      30.13F
SALT LAKE CITY MOSUNNY   82  53  36 NW6       30.09F
VERNAL         MOSUNNY   78  46  32 VRB6      30.17F
WENDOVER       SUNNY     79  52  38 E7        30.10F
HEBER CITY     SUNNY     73  50  43 CALM      30.19F
WEST JORDAN    SUNNY     81  52  36 SE6       30.13S

$$

UTZ012>022-026-027-042000-

SOUTHERN/CENTRAL UTAH

CITY           SKY/WX    TMP DP  RH WIND       PRES   REMARKS
BLANDING       SUNNY     82  48  31 SW8       30.29F
BRYCE CANYON   SUNNY     78  40  25 S15G22    30.35S
CEDAR CITY     SUNNY     89  32  13 SW15G23   30.17S
DELTA          SUNNY     83  44  24 W5        30.12F
HANKSVILLE     SUNNY     86  52  30 CALM      30.13F
MILFORD        SUNNY     90  32  12 SW15G22   30.11F
MOAB/CYNLANDS  SUNNY     82  52  35 VRB3      30.11F
PRICE          SUNNY     79  47  32 VRB3      30.22F
ST GEORGE      CLEAR     97  43  15 CALM      29.99F HX  92
KANAB          SUNNY     90  36  14 S3        30.20F

$$

REGIONAL REPORTS     COLORADO/ARIZONA

CITY           SKY/WX    TMP DP  RH WIND       PRES   REMARKS
CRAIG, CO      NOT AVBL
GRAND JUNCTION SUNNY     84  47  27 W8        30.14F
RIFLE          SUNNY     82  44  26 VRB7      30.17F
MONTROSE       SUNNY     81  48  31 N6        30.22F
CORTEZ         SUNNY     82  48  30 SW5       30.22F
PAGE, AZ       SUNNY     92  43  18 N8        30.09F
GRAND CANYON   SUNNY     84  31  14 SW14G22   30.30F
KINGMAN        SUNNY     97  33  10 S12G21    30.06S HX  91
FLAGSTAFF      SUNNY     80  36  20 SW18G24   30.35S

$$

REGIONAL REPORTS    NEVADA/IDAHO/WYOMING

CITY           SKY/WX    TMP DP  RH WIND       PRES   REMARKS
LAS VEGAS, NV  NOT AVBL
ELY            SUNNY     88  21   8 S16G22    30.17F
ELKO           SUNNY     84  41  21 CALM      30.07F
POCATELLO, ID  MOSUNNY   83  54  36 NW7       30.09F
BURLEY         SUNNY     82  51  34 NE7       30.04F
EVANSTON, WY   MOSUNNY   74  46  36 W13G20    30.29F
ROCK SPRINGS   MOSUNNY   73  47  39 W15G24    30.23F
KEMMERER       SUNNY     70  46  43 SW13G22   30.30S

$$



USA.gov is the U.S. government's official web portal to all federal, state and local government web resources and services.